[[{"header":{"parameterUnit":"m.s-1","parameterCategory":1,"la1":30.2991,"la2":30.254,"lo1":-89.0895,"lo2":-89.0444,"dy":0.0017,"dx":0.0017,"nx":28,"ny":28,"refTime":"2023-09-08T21:00:00:Z","depth":0,"parameterNumber":2,"parameterNumberName":"U-component_of_WINDS"},"data":[0,0,0,0,0,0,0,0,0,0,0,0,0,0,0,0,0,0,0,0,0,0,0,0,0,0,0,0,0,0,0,0,0,0,0,0,0,0,0,0,0,0,0,0,0,0,0,0,0,0,0,0,0,0,0,0,0,0,-0.8457,-0.8455,0,-0.831,-0.8308,-0.8307,-0.8178,-0.8176,-0.8175,-0.8174,-0.8019,-0.8016,-0.8013,0,0,0,0,0,0,0,0,0,0,0,0,0,-0.8623,-0.862,-0.8457,-0.8455,-0.8453,-0.831,-0.8308,-0.8306,-0.8178,-0.8176,-0.8175,-0.8173,-0.8019,-0.8016,-0.8013,0,0,0,0,0,0,0,0,0,0,0,0,0,-0.8521,-0.862,-0.8457,-0.8372,-0.8363,-0.8311,-0.8308,-0.8306,-0.8179,-0.8176,-0.8174,-0.8172,-0.8021,-0.8017,-0.8012,-0.8031,0,0,-0.8,-0.7998,0,0,0,0,0,0,0,0,-0.8527,-0.8515,-0.8387,-0.8378,-0.8368,-0.826,-0.831,-0.8213,-0.8179,-0.8249,-0.8174,-0.8171,-0.81,-0.809,-0.8067,-0.8024,-0.8017,-0.7999,-0.7997,-0.7995,-0.7994,0,0,0,0,0,0,0,-0.8534,-0.852,-0.8399,-0.8385,-0.8373,-0.834,-0.8323,-0.8291,-0.8188,-0.8242,-0.8233,-0.8217,-0.8095,-0.8071,-0.8062,-0.8015,-0.8,-0.7996,-0.7993,-0.7992,-0.798,-0.7982,0,0,0,0,0,0,-0.8555,-0.8527,-0.8403,-0.8394,-0.8444,-0.8339,-0.832,-0.8297,-0.8188,-0.817,-0.8219,-0.8212,-0.8079,-0.8067,-0.8056,-0.8071,-0.7995,-0.7991,-0.7989,-0.7978,-0.798,-0.7983,0,0,0,0,0,0,-0.8559,-0.8545,-0.8409,-0.8458,-0.8438,-0.8339,-0.8313,-0.8295,-0.8271,-0.8171,-0.8152,-0.8214,-0.8077,-0.8062,-0.8039,-0.8064,-0.7989,-0.7986,-0.7975,-0.7979,-0.7982,-0.8101,0,0,0,0,0,0,-0.8564,-0.8547,-0.8554,-0.8459,-0.8436,-0.8396,-0.8315,-0.8294,-0.8265,-0.8254,-0.8161,-0.8144,-0.8074,-0.8046,-0.8035,-0.8057,-0.7982,-0.7972,-0.7977,-0.798,-0.8095,-0.8108,-0.812,0,0,0,0,0,-0.857,-0.8592,-0.8555,-0.8541,-0.8443,-0.8397,-0.8384,-0.8305,-0.8268,-0.8273,-0.8209,-0.8146,-0.8063,-0.8044,-0.8031,-0.8052,-0.797,-0.7975,-0.798,-0.8089,-0.8106,-0.812,0,0,0,0,0,0,-0.8691,-0.8578,-0.8536,-0.8528,-0.8474,-0.8376,-0.838,-0.8325,-0.8279,-0.827,-0.8172,-0.8152,-0.814,-0.8093,-0.8074,-0.8065,-0.8008,-0.8011,-0.8096,-0.8111,-0.8123,-0.8135,-0.7979,0,0,0,0,0,-0.8717,-0.8691,-0.8593,-0.8595,-0.8571,-0.8481,-0.8458,-0.8402,-0.8341,-0.8317,-0.8251,-0.8193,-0.8153,-0.8129,-0.8087,-0.8087,-0.8065,-0.8095,-0.8108,-0.8119,-0.8122,-0.8119,-0.8132,-0.7999,-0.7999,-0.7999,0,0,-0.8769,-0.8705,-0.8694,-0.8618,-0.8569,-0.8544,-0.8462,-0.8438,-0.8417,-0.8312,-0.8287,-0.8237,-0.8165,-0.8155,-0.8146,-0.8115,-0.8154,-0.8125,-0.8135,-0.8132,-0.8126,-0.8138,-0.815,-0.8002,-0.8001,-0.8001,0,0,-0.8852,-0.8801,-0.8798,-0.8751,-0.8679,-0.8619,-0.8619,-0.853,-0.8493,-0.8466,-0.8388,-0.8361,-0.8295,-0.8248,-0.8216,-0.8283,-0.8223,-0.8271,-0.8337,-0.8336,-0.8346,-0.8355,-0.8379,-0.8389,-0.8275,-0.8275,-0.8275,0,-0.8926,-0.8886,-0.8803,-0.8784,-0.8753,-0.8659,-0.8654,-0.8613,-0.853,-0.8511,-0.8477,-0.8394,-0.8339,-0.8316,-0.8333,-0.8309,-0.8305,-0.8281,-0.8352,-0.836,-0.8367,-0.8389,-0.8398,-0.8282,-0.8281,-0.828,-0.828,0,-0.8981,-0.8954,-0.8959,-0.8885,-0.8854,-0.8842,-0.8757,-0.8736,-0.8683,-0.8627,-0.8601,-0.8532,-0.8476,-0.8466,-0.8413,-0.8435,-0.8419,-0.837,-0.8311,-0.8387,-0.8406,-0.8414,-0.8291,-0.8288,-0.8286,-0.8285,0,0,-0.9134,-0.9015,-0.9018,-0.8984,-0.8898,-0.8875,-0.8859,-0.8805,-0.8789,-0.8736,-0.872,-0.8667,-0.8622,-0.8585,-0.8526,-0.8525,-0.8583,-0.8476,-0.8473,-0.8499,-0.8604,-0.8642,-0.8653,-0.8544,-0.8545,-0.8546,-0.8611,0,-0.9203,-0.9171,-0.9097,-0.9087,-0.9061,-0.8972,-0.8958,-0.8904,-0.8851,-0.882,-0.8761,-0.8726,-0.8669,-0.8646,-0.8641,-0.8578,-0.8603,-0.8572,-0.8527,-0.8527,-0.8549,-0.8663,-0.8702,-0.8766,-0.8617,-0.8619,-0.8619,0,-0.9279,-0.9234,-0.9223,-0.9139,-0.9126,-0.9115,-0.906,-0.9032,-0.8968,-0.893,-0.889,-0.8826,-0.8804,-0.875,-0.8718,-0.8699,-0.8676,-0.8642,-0.8643,-0.8635,-0.8578,-0.8659,-0.8784,-0.8794,-0.863,-0.8629,-0.8629,0,-0.9393,-0.9329,-0.9314,-0.9287,-0.9189,-0.9184,-0.9143,-0.9077,-0.905,-0.9001,-0.8983,-0.8932,-0.8904,-0.8866,-0.879,-0.8758,-0.8766,-0.8706,-0.8733,-0.8735,-0.8739,-0.8739,-0.8863,-0.8724,-0.8724,-0.8724,-0.8724,0,-0.9478,-0.9475,-0.9364,-0.9355,-0.9349,-0.9263,-0.9258,-0.9209,-0.9151,-0.913,-0.9049,-0.9031,-0.8931,-0.8901,-0.8841,-0.8824,-0.8812,-0.878,-0.8764,-0.8787,-0.8791,-0.8771,-0.8764,-0.8726,-0.8726,-0.8725,-0.8725,0,-0.9605,-0.953,-0.9508,-0.9418,-0.9396,-0.9395,-0.9317,-0.9305,-0.9248,-0.9223,-0.9211,-0.9121,-0.9082,-0.9002,-0.894,-0.89,-0.8897,-0.8868,-0.8919,-0.8909,-0.8941,-0.8939,-0.9055,-0.9066,-0.8922,-0.8923,-0.8925,0,-0.9664,-0.966,-0.957,-0.9551,-0.9514,-0.9484,-0.9456,-0.9372,-0.9346,-0.9274,-0.927,-0.9225,-0.9184,-0.9126,-0.9054,-0.9006,-0.8976,-0.902,-0.8968,-0.8993,-0.8977,-0.8979,-0.8978,-0.9032,-0.9034,-0.9035,-0.9037,0,-0.9777,-0.9741,-0.9705,-0.9657,-0.9627,-0.9584,-0.9537,-0.9526,-0.943,-0.9405,-0.9365,-0.9334,-0.9272,-0.9228,-0.917,-0.9126,-0.9066,-0.9054,-0.9058,-0.9082,-0.9111,-0.9096,-0.8951,-0.9051,-0.905,-0.9049,-0.9048,-0.9048,-0.9871,-0.9864,-0.98,-0.9763,-0.972,-0.9678,-0.9662,-0.9604,-0.957,-0.9514,-0.9465,-0.943,-0.9366,-0.9283,-0.9243,-0.9213,-0.9184,-0.9189,-0.919,-0.9193,-0.9203,-0.9117,-0.9202,-0.9202,-0.9201,-0.9201,-0.92,0,-0.9981,-0.9936,-0.9903,-0.9841,-0.9812,-0.9759,-0.9705,-0.9684,-0.9654,-0.9601,-0.9563,-0.9518,-0.9475,-0.9401,-0.9352,-0.9342,-0.9314,-0.9332,-0.9332,-0.9323,-0.9232,-0.9234,-0.9357,-0.9357,-0.9357,-0.9357,-0.9357,-0.9357,-1.0035,-1.002,-0.9976,-0.9938,-0.9892,-0.9859,-0.9832,-0.9793,-0.975,-0.9704,-0.9669,-0.9621,-0.9559,-0.9506,-0.9464,-0.9443,-0.9429,-0.9457,-0.9428,-0.9344,-0.9329,-0.9315,-0.9317,-0.9455,-0.9455,-0.9521,-0.9521,-0.9522]},{"header":{"parameterUnit":"m.s-1","parameterCategory":1,"la1":30.2991,"la2":30.254,"lo1":-89.0895,"lo2":-89.0444,"dy":0.0017,"dx":0.0017,"nx":28,"ny":28,"refTime":"2023-09-08T21:00:00:Z","depth":0,"parameterNumber":3,"parameterNumberName":"V-component_of_WINDS"},"data":[0,0,0,0,0,0,0,0,0,0,0,0,0,0,0,0,0,0,0,0,0,0,0,0,0,0,0,0,0,0,0,0,0,0,0,0,0,0,0,0,0,0,0,0,0,0,0,0,0,0,0,0,0,0,0,0,0,0,2.1026,2.1026,0,2.1055,2.1056,2.1056,2.1091,2.1092,2.1093,2.1093,2.1121,2.1121,2.1121,0,0,0,0,0,0,0,0,0,0,0,0,0,2.0997,2.0998,2.1026,2.1026,2.1027,2.1055,2.1056,2.1056,2.1091,2.1092,2.1093,2.1093,2.1121,2.1121,2.1121,0,0,0,0,0,0,0,0,0,0,0,0,0,2.1016,2.0998,2.1026,2.1048,2.105,2.1055,2.1056,2.1056,2.1091,2.1092,2.1093,2.1094,2.112,2.1121,2.1121,2.1106,0,0,2.1122,2.1122,0,0,0,0,0,0,0,0,2.1015,2.1017,2.1044,2.1046,2.1049,2.1071,2.1056,2.1073,2.1091,2.1075,2.1093,2.1094,2.1103,2.1105,2.1109,2.1107,2.1109,2.1122,2.1122,2.1122,2.1122,0,0,0,0,0,0,0,2.1014,2.1016,2.1037,2.1044,2.1047,2.1055,2.1059,2.1059,2.1084,2.1077,2.108,2.1083,2.1105,2.1108,2.1109,2.1109,2.1122,2.1122,2.1123,2.1123,2.1095,2.1094,0,0,0,0,0,0,2.101,2.1015,2.1037,2.1038,2.1034,2.1055,2.1059,2.1063,2.1084,2.1088,2.1082,2.1084,2.1107,2.1109,2.111,2.1093,2.1122,2.1123,2.1123,2.1096,2.1095,2.1094,0,0,0,0,0,0,2.1009,2.1011,2.1035,2.1027,2.1031,2.1055,2.1058,2.1063,2.1066,2.1088,2.1092,2.1081,2.1108,2.111,2.1107,2.1094,2.1123,2.1123,2.1097,2.1096,2.1095,2.1058,0,0,0,0,0,0,2.1008,2.1011,2.1006,2.1027,2.1031,2.1032,2.1058,2.1063,2.1067,2.107,2.1088,2.1092,2.1109,2.1106,2.1107,2.1095,2.1123,2.1098,2.1097,2.1095,2.1061,2.1056,2.1052,0,0,0,0,0,2.1007,2.0995,2.1006,2.1008,2.1026,2.1031,2.1033,2.1053,2.1066,2.1061,2.1075,2.1092,2.1096,2.1105,2.1107,2.1095,2.1099,2.1097,2.1095,2.1063,2.1057,2.1052,0,0,0,0,0,0,2.0971,2.0998,2.101,2.1005,2.1016,2.1037,2.1031,2.1047,2.1053,2.1056,2.108,2.1083,2.1077,2.1086,2.1096,2.1081,2.11,2.1098,2.1075,2.107,2.1065,2.1062,2.1124,0,0,0,0,0,2.0963,2.0966,2.0989,2.0981,2.0986,2.1008,2.1011,2.1025,2.1037,2.1041,2.1055,2.1064,2.1068,2.1069,2.1074,2.1063,2.1066,2.1055,2.1051,2.1047,2.1045,2.1037,2.1032,2.1087,2.1087,2.1087,0,0,2.0945,2.096,2.096,2.0974,2.0984,2.0985,2.1011,2.1011,2.1012,2.1041,2.1038,2.1048,2.1061,2.1053,2.105,2.106,2.103,2.1044,2.1041,2.1041,2.1035,2.1029,2.1025,2.1086,2.1086,2.1086,0,0,2.0914,2.0926,2.092,2.093,2.0945,2.0959,2.0957,2.0977,2.0984,2.0983,2.1004,2.1004,2.101,2.1018,2.1022,2.0992,2.1007,2.0993,2.0969,2.0962,2.0957,2.0954,2.0941,2.0936,2.0991,2.0991,2.0991,0,2.089,2.0893,2.0916,2.0914,2.0919,2.0946,2.0939,2.0947,2.0962,2.0964,2.0976,2.0983,2.0993,2.0986,2.0979,2.0983,2.098,2.099,2.0956,2.0953,2.095,2.0938,2.0933,2.0989,2.0989,2.0989,2.0989,0,2.0861,2.0863,2.0857,2.0871,2.0875,2.0871,2.0892,2.0894,2.0907,2.092,2.0917,2.093,2.0937,2.0937,2.0951,2.0932,2.0937,2.0952,2.0972,2.0942,2.0931,2.0927,2.0986,2.0987,2.0987,2.0988,0,0,2.0808,2.0834,2.0831,2.0837,2.0855,2.0856,2.0853,2.086,2.086,2.0869,2.0866,2.087,2.0884,2.0889,2.0903,2.0897,2.087,2.0913,2.0914,2.0903,2.0848,2.0835,2.083,2.0881,2.088,2.088,2.0846,0,2.0778,2.0774,2.0794,2.0785,2.0785,2.081,2.0807,2.0817,2.0829,2.083,2.0843,2.0845,2.0864,2.0867,2.0862,2.0874,2.0859,2.0877,2.0876,2.0876,2.0871,2.0825,2.0811,2.0779,2.0842,2.0842,2.0841,0,2.0742,2.075,2.074,2.0757,2.0758,2.0755,2.0762,2.0764,2.0775,2.0784,2.079,2.0806,2.0803,2.0823,2.0817,2.0829,2.083,2.0836,2.0835,2.0834,2.0856,2.0821,2.077,2.0764,2.0835,2.0836,2.0836,0,2.0701,2.0709,2.0704,2.0709,2.0729,2.0726,2.0734,2.0746,2.0749,2.0755,2.0757,2.0762,2.0765,2.0768,2.0786,2.0799,2.0778,2.0799,2.0783,2.0783,2.0776,2.0776,2.0723,2.078,2.078,2.078,2.078,0,2.0665,2.0657,2.0686,2.0682,2.0674,2.0697,2.0688,2.0699,2.0709,2.0707,2.073,2.0728,2.0752,2.0752,2.0765,2.0757,2.0759,2.0765,2.0768,2.0762,2.0761,2.0761,2.0763,2.0779,2.0779,2.0779,2.078,0,2.0617,2.0636,2.0632,2.0651,2.0656,2.0649,2.0665,2.0662,2.0675,2.0672,2.0673,2.0693,2.0694,2.0712,2.0717,2.0726,2.0712,2.0721,2.0708,2.071,2.0692,2.0693,2.0636,2.0629,2.0692,2.0692,2.0691,0,2.0591,2.0586,2.0605,2.0606,2.0613,2.0614,2.0616,2.0638,2.064,2.0652,2.0647,2.065,2.0653,2.0653,2.0667,2.0671,2.0678,2.0658,2.0679,2.0672,2.0675,2.0675,2.0673,2.0653,2.0652,2.0652,2.0651,0,2.0543,2.0553,2.0556,2.0562,2.0565,2.0571,2.0578,2.0577,2.0601,2.0601,2.0602,2.0605,2.061,2.0612,2.0618,2.0625,2.0641,2.0645,2.0641,2.0633,2.0625,2.0627,2.0694,2.0645,2.0646,2.0646,2.0647,2.0647,2.0505,2.0501,2.0513,2.0515,2.0523,2.0529,2.0526,2.0539,2.0541,2.0547,2.056,2.0558,2.0568,2.0578,2.0584,2.0583,2.0593,2.0588,2.0586,2.0584,2.0579,2.0627,2.0584,2.0584,2.0584,2.0585,2.0585,0,2.0456,2.0465,2.0467,2.0476,2.0477,2.0494,2.0502,2.0502,2.0501,2.051,2.0512,2.0513,2.0515,2.0529,2.0532,2.0528,2.0536,2.0528,2.0528,2.0528,2.0571,2.0573,2.0522,2.0522,2.0522,2.0522,2.0522,2.0522,2.043,2.0424,2.0434,2.0431,2.044,2.044,2.0443,2.0448,2.0454,2.0454,2.0456,2.0466,2.0476,2.048,2.0482,2.0486,2.0485,2.0474,2.0481,2.052,2.0526,2.0532,2.0533,2.0475,2.0475,2.0438,2.0438,2.0437]}]]